Darstellungsparameter: Aktuell verwendete Einstellungen:
Skalierung der Graphiken ... ?
xyx+y,   Skalierungsfaktor:      Skalierung: Modus: x, Faktor: 1
Darstellungszeitraum ... ?
Vom - - bis: - -   Zeitraum: 03.02.2020 - 02.08.2020
Min/Max/Avg-Anzeige ... ?
Zeige MMA aktuell
Zeige MMA Monat
Zeige MMA alles
Zeige --A aktuell
Zeige --A Monat
Zeige --A alles
Keine MMA-Anzeige
MMA:
Keine MMA-Graphiken
MMA-Basis: 03.02.2020 - 02.08.2020
Quicknavigation für Darstellung... ?
Tage:      1T, 2T, 3T, 5T -1T -2T -3T -5T +1T +2T +3T +5T
Wochen: 1W, 2W, 3W -1W -2W -3W +1W +2W +3W
Monate: 1M, 3M, 6M -1M -3M -6M +1M +3M +6M
Jahre:    1J, 3J, 5J, 10J -1J -3J -5J -10J +1J +3J +5J +10J
Nutze für die Darstellung ... ?
Originaldaten oder ...
Mittelwerte Minima Maxima auf...
Stundenbasis Tagesbasis Wochenbasis
Monatsbasis Jahresbasis      Datenbasis: Mittelwerte auf Tagesbasis
Darstellen als:
Statistik (Auto) Statistik J:M      Darstellung:
Zur Graphik,    zurück zur Übersicht aller Sensoren.
 
Tabellarische Datenbersicht: ?
 
Sensor: Nr:Datum:Temp:Feuchte:
Aussen-T/F 1 03-02-2020 00:00:00 10.19236 C 29.5139 %
2 04-02-2020 00:00:00 4.29514 C 36.4097 %
3 05-02-2020 00:00:00 3.05069 C 37.1458 %
4 06-02-2020 00:00:00 0.04514 C 42.7500 %
5 07-02-2020 00:00:00 -0.30764 C 42.8264 %
6 08-02-2020 00:00:00 1.01389 C 43.0069 %
7 09-02-2020 00:00:00 8.36458 C 32.5764 %
8 10-02-2020 00:00:00 7.85 C 31.3611 %
9 11-02-2020 00:00:00 5.29167 C 24.6597 %
10 12-02-2020 00:00:00 4.32083 C 30.5972 %
11 13-02-2020 00:00:00 3.32917 C 42.1250 %
12 14-02-2020 00:00:00 5.46458 C 39.2639 %
13 15-02-2020 00:00:00 5.89931 C 38.0278 %
14 16-02-2020 00:00:00 14.44931 C 23.2431 %
15 17-02-2020 00:00:00 8.25903 C 32.4167 %
16 18-02-2020 00:00:00 6.89097 C 31.0347 %
17 19-02-2020 00:00:00 5.73889 C 30.1875 %
18 20-02-2020 00:00:00 7.7125 C 32.9722 %
19 21-02-2020 00:00:00 4.71042 C 33.5972 %
20 22-02-2020 00:00:00 7.67986 C 30.0347 %
21 23-02-2020 00:00:00 10.01389 C 35.3403 %
22 24-02-2020 00:00:00 7.74653 C 36.3194 %
23 25-02-2020 00:00:00 8.81597 C 32.2778 %
24 26-02-2020 00:00:00 4.37431 C 33.6806 %
25 27-02-2020 00:00:00 2.22153 C 41.6806 %
Sensor: Nr:Datum:Temp:Feuchte:
Aussen-T/F 26 28-02-2020 00:00:00 3.52431 C 38.4514 %
27 29-02-2020 00:00:00 8.60556 C 34.8889 %
28 01-03-2020 00:00:00 7.15694 C 36.0000 %
29 02-03-2020 00:00:00 5.99375 C 40.1667 %
30 03-03-2020 00:00:00 4.26806 C 39.6458 %
31 04-03-2020 00:00:00 5.28958 C 37.5764 %
32 05-03-2020 00:00:00 5.45764 C 43.0833 %
33 06-03-2020 00:00:00 5.63958 C 40.4931 %
34 07-03-2020 00:00:00 6.26458 C 33.7569 %
35 08-03-2020 00:00:00 9.46458 C 32.2361 %
36 09-03-2020 00:00:00 7.81875 C 35.4514 %
37 10-03-2020 00:00:00 9.06181 C 39.4514 %
38 11-03-2020 00:00:00 14.0375 C 35.2639 %
39 12-03-2020 00:00:00 11.01597 C 30.3681 %
40 13-03-2020 00:00:00 6.99236 C 33.4236 %
41 14-03-2020 00:00:00 5.89028 C 38.1667 %
42 15-03-2020 00:00:00 9.14653 C 32.2153 %
43 16-03-2020 00:00:00 9.43264 C 35.6667 %
44 17-03-2020 00:00:00 12.02708 C 33.7847 %
45 18-03-2020 00:00:00 9.92639 C 36.2153 %
46 19-03-2020 00:00:00 12.58194 C 32.0417 %
47 20-03-2020 00:00:00 10.52657 C 36.2308 %
48 21-03-2020 00:00:00 5.89653 C 34.6597 %
49 22-03-2020 00:00:00 4.30139 C 28.5278 %
50 23-03-2020 00:00:00 3.12292 C 27.0764 %
Sensor: Nr:Datum:Temp:Feuchte:
Aussen-T/F 51 24-03-2020 00:00:00 2.82431 C 27.8403 %
52 25-03-2020 00:00:00 3.67014 C 25.0486 %
53 26-03-2020 00:00:00 5.25486 C 23.4931 %
54 27-03-2020 00:00:00 8.10139 C 29.8819 %
55 28-03-2020 00:00:00 9.69236 C 30.9306 %
56 29-03-2020 00:00:00 5.0942 C 30.1377 %
57 30-03-2020 00:00:00 2.89028 C 29.9167 %
58 31-03-2020 00:00:00 5.79792 C 30.1528 %
59 01-04-2020 00:00:00 4.16111 C 29.6944 %
60 02-04-2020 00:00:00 5.26806 C 31.1944 %
61 03-04-2020 00:00:00 7.93542 C 28.5069 %
62 04-04-2020 00:00:00 6.89375 C 31.8958 %
63 05-04-2020 00:00:00 9.74514 C 32.0625 %
64 06-04-2020 00:00:00 12.17708 C 29.7431 %
65 07-04-2020 00:00:00 14.2875 C 28.9028 %
66 08-04-2020 00:00:00 15.02153 C 31.1528 %
67 09-04-2020 00:00:00 15.89514 C 27.6458 %
68 10-04-2020 00:00:00 14.80972 C 29.8333 %
69 11-04-2020 00:00:00 14.775 C 25.4861 %
70 12-04-2020 00:00:00 15.71319 C 27.3056 %
71 13-04-2020 00:00:00 9.43542 C 29.6944 %
72 14-04-2020 00:00:00 6.54583 C 28.1042 %
73 15-04-2020 00:00:00 9.17222 C 30.8750 %
74 16-04-2020 00:00:00 13.09792 C 29.6667 %
75 17-04-2020 00:00:00 15.68056 C 30.2500 %
Sensor: Nr:Datum:Temp:Feuchte:
Aussen-T/F 76 18-04-2020 00:00:00 14.81597 C 32.5000 %
77 19-04-2020 00:00:00 13.35694 C 32.8889 %
78 20-04-2020 00:00:00 12.80069 C 22.9861 %
79 21-04-2020 00:00:00 13.68472 C 21.3889 %
80 22-04-2020 00:00:00 14.69375 C 23.2153 %
81 23-04-2020 00:00:00 14.90347 C 25.2917 %
82 24-04-2020 00:00:00 14.72361 C 27.0278 %
83 25-04-2020 00:00:00 13.03611 C 25.6597 %
84 26-04-2020 00:00:00 12.22917 C 31.0069 %
85 27-04-2020 00:00:00 13.17153 C 29.7431 %
86 28-04-2020 00:00:00 12.62153 C 36.5556 %
87 29-04-2020 00:00:00 14.57569 C 31.0903 %
88 30-04-2020 00:00:00 12.09722 C 36.4583 %
89 01-05-2020 00:00:00 10.66042 C 37.3542 %
90 02-05-2020 00:00:00 10.00764 C 36.3611 %
91 03-05-2020 00:00:00 10.75833 C 34.4653 %
92 04-05-2020 00:00:00 11.74722 C 36.3681 %
93 05-05-2020 00:00:00 11.26667 C 32.2083 %
94 06-05-2020 00:00:00 11.08403 C 30.6181 %
95 07-05-2020 00:00:00 13.50764 C 30.8056 %
96 08-05-2020 00:00:00 15.85208 C 29.3056 %
97 09-05-2020 00:00:00 16.28611 C 29.0139 %
98 10-05-2020 00:00:00 15.97153 C 36.6389 %
99 11-05-2020 00:00:00 9.26875 C 32.4028 %
100 12-05-2020 00:00:00 8.55764 C 29.8264 %
Sensor: Nr:Datum:Temp:Feuchte:
Aussen-T/F 101 13-05-2020 00:00:00 9.41528 C 30.4444 %
102 14-05-2020 00:00:00 9.74792 C 29.2917 %
103 15-05-2020 00:00:00 11.27986 C 28.5903 %
104 16-05-2020 00:00:00 11.95833 C 29.2986 %
105 17-05-2020 00:00:00 14.25556 C 28.0625 %
106 18-05-2020 00:00:00 16.81042 C 28.8681 %
107 19-05-2020 00:00:00 17.67986 C 29.2153 %
108 20-05-2020 00:00:00 18.90417 C 29.3611 %
109 21-05-2020 00:00:00 20.425 C 29.2361 %
110 22-05-2020 00:00:00 20.27222 C 29.9583 %
111 23-05-2020 00:00:00 13.65972 C 37.1111 %
112 24-05-2020 00:00:00 13.68056 C 31.3750 %
113 25-05-2020 00:00:00 16.41181 C 30.5625 %
114 26-05-2020 00:00:00 15.69306 C 31.7292 %
115 27-05-2020 00:00:00 18.09444 C 29.6597 %
116 28-05-2020 00:00:00 18.81736 C 24.7153 %
117 29-05-2020 00:00:00 16.43681 C 26.8056 %
118 30-05-2020 00:00:00 16.61667 C 24.5000 %
119 31-05-2020 00:00:00 16.21736 C 26.2153 %
120 01-06-2020 00:00:00 19.27153 C 26.8889 %
121 02-06-2020 00:00:00 21.30486 C 25.6250 %
122 03-06-2020 00:00:00 21.06597 C 25.1042 %
123 04-06-2020 00:00:00 14.39583 C 39.8403 %
124 05-06-2020 00:00:00 11.4625 C 37.4306 %
125 06-06-2020 00:00:00 12.76111 C 34.0347 %
Sensor: Nr:Datum:Temp:Feuchte:
Aussen-T/F 126 07-06-2020 00:00:00 13.84514 C 31.7083 %
127 08-06-2020 00:00:00 15.57014 C 31.2986 %
128 09-06-2020 00:00:00 14.49861 C 37.8333 %
129 10-06-2020 00:00:00 15.8625 C 35.7431 %
130 11-06-2020 00:00:00 15.99028 C 36.5486 %
131 12-06-2020 00:00:00 20.73403 C 31.5139 %
132 13-06-2020 00:00:00 21.73403 C 27.8889 %
133 14-06-2020 00:00:00 19.10208 C 32.2222 %
134 15-06-2020 00:00:00 19.14306 C 31.8264 %
135 16-06-2020 00:00:00 18.22986 C 36.8750 %
136 17-06-2020 00:00:00 18.10486 C 36.5347 %
137 18-06-2020 00:00:00 19.72569 C 31.4722 %
138 19-06-2020 00:00:00 17.11181 C 35.9028 %
139 20-06-2020 00:00:00 17.44514 C 34.6319 %
140 21-06-2020 00:00:00 20.65208 C 31.4097 %
141 22-06-2020 00:00:00 20.03958 C 29.0347 %
142 23-06-2020 00:00:00 21.27708 C 29.8472 %
143 24-06-2020 00:00:00 22.32569 C 27.2222 %
144 25-06-2020 00:00:00 22.52222 C 26.3264 %
145 26-06-2020 00:00:00 23.33542 C 29.4306 %
146 27-06-2020 00:00:00 23.59236 C 27.9236 %
147 28-06-2020 00:00:00 20.15625 C 29.1181 %
148 29-06-2020 00:00:00 18.91667 C 29.3750 %
149 30-06-2020 00:00:00 17.63611 C 29.2500 %
150 01-07-2020 00:00:00 22.10764 C 27.2500 %
Sensor: Nr:Datum:Temp:Feuchte:
Aussen-T/F 151 02-07-2020 00:00:00 19.35903 C 32.8611 %
152 03-07-2020 00:00:00 18.4375 C 30.9306 %
153 04-07-2020 00:00:00 19.56528 C 27.8056 %
154 05-07-2020 00:00:00 23.42222 C 26.5069 %
155 06-07-2020 00:00:00 16.97292 C 27.8264 %
156 07-07-2020 00:00:00 16.98611 C 30.0903 %
157 08-07-2020 00:00:00 15.99444 C 36.0486 %
158 09-07-2020 00:00:00 22.42361 C 30.2153 %
159 10-07-2020 00:00:00 18.77222 C 32.6042 %
160 11-07-2020 00:00:00 17.44167 C 29.9514 %
161 12-07-2020 00:00:00 18.36944 C 29.9792 %
162 13-07-2020 00:00:00 20.63333 C 27.9931 %
163 14-07-2020 00:00:00 19.57917 C 28.7153 %
164 15-07-2020 00:00:00 18.56806 C 29.6389 %
165 16-07-2020 00:00:00 16.03611 C 38.0625 %
166 17-07-2020 00:00:00 19.64375 C 32.7222 %
167 18-07-2020 00:00:00 20.24406 C 31.3636 %
168 19-07-2020 00:00:00 23.3625 C 27.6597 %
169 20-07-2020 00:00:00 20.29931 C 28.6111 %
170 21-07-2020 00:00:00 18.99375 C 27.2083 %
171 22-07-2020 00:00:00 18.52222 C 28.8542 %
172 23-07-2020 00:00:00 20.38472 C 26.9306 %
173 24-07-2020 00:00:00 21.93889 C 24.3333 %
174 25-07-2020 00:00:00 21.73681 C 27.9583 %
175 26-07-2020 00:00:00 21.61944 C 29.2361 %
Sensor: Nr:Datum:Temp:Feuchte:
Aussen-T/F 176 27-07-2020 00:00:00 22.74306 C 28.1181 %
177 28-07-2020 00:00:00 23.63681 C 22.2569 %
178 29-07-2020 00:00:00 20.21875 C 27.2083 %
179 30-07-2020 00:00:00 21.74306 C 27.3958 %
180 31-07-2020 00:00:00 25.38125 C 25.3056 %
181 01-08-2020 00:00:00 22.83611 C 31.0000 %
182 02-08-2020 00:00:00 22.3625 C 29.5694 %
Sensor: Nr:Datum:Temp:Feuchte:
G-T/H 1 03-02-2020 00:00:00 11.4875 C 75.0000 %
2 04-02-2020 00:00:00 10.54722 C 71.2847 %
3 05-02-2020 00:00:00 9.47153 C 71.9236 %
4 06-02-2020 00:00:00 8.34306 C 70.5208 %
5 07-02-2020 00:00:00 7.79097 C 69.9167 %
6 08-02-2020 00:00:00 7.33681 C 70.6528 %
7 09-02-2020 00:00:00 8.3 C 73.5694 %
8 10-02-2020 00:00:00 9.82708 C 73.9167 %
9 11-02-2020 00:00:00 9.18194 C 72.2431 %
10 12-02-2020 00:00:00 8.72083 C 72.8750 %
11 13-02-2020 00:00:00 8.20208 C 72.5208 %
12 14-02-2020 00:00:00 8.84653 C 74.7500 %
13 15-02-2020 00:00:00 8.93958 C 73.5903 %
14 16-02-2020 00:00:00 11.3125 C 68.1111 %
15 17-02-2020 00:00:00 11.77708 C 69.2778 %
16 18-02-2020 00:00:00 10.43056 C 67.4028 %
17 19-02-2020 00:00:00 9.94514 C 69.4583 %
18 20-02-2020 00:00:00 9.73472 C 71.6875 %
19 21-02-2020 00:00:00 9.56875 C 71.4931 %
20 22-02-2020 00:00:00 9.25625 C 72.0625 %
21 23-02-2020 00:00:00 10.38403 C 73.7708 %
22 24-02-2020 00:00:00 10.40903 C 71.9792 %
23 25-02-2020 00:00:00 10.88819 C 73.0278 %
24 26-02-2020 00:00:00 10.02917 C 68.9306 %
25 27-02-2020 00:00:00 9.17986 C 71.0208 %
Sensor: Nr:Datum:Temp:Feuchte:
G-T/H 26 28-02-2020 00:00:00 8.31042 C 73.7708 %
27 29-02-2020 00:00:00 9.28125 C 75.1597 %
28 01-03-2020 00:00:00 9.80486 C 74.3403 %
29 02-03-2020 00:00:00 9.67847 C 73.5833 %
30 03-03-2020 00:00:00 9.53681 C 73.3194 %
31 04-03-2020 00:00:00 8.95833 C 73.5139 %
32 05-03-2020 00:00:00 9.15833 C 73.9861 %
33 06-03-2020 00:00:00 9.48958 C 74.9514 %
34 07-03-2020 00:00:00 9.38611 C 74.0556 %
35 08-03-2020 00:00:00 9.99583 C 74.7292 %
36 09-03-2020 00:00:00 10.54861 C 73.8819 %
37 10-03-2020 00:00:00 10.28056 C 73.3819 %
38 11-03-2020 00:00:00 11.72083 C 75.8889 %
39 12-03-2020 00:00:00 12.29653 C 71.3333 %
40 13-03-2020 00:00:00 11.08333 C 68.2014 %
41 14-03-2020 00:00:00 10.32361 C 70.1250 %
42 15-03-2020 00:00:00 10.87153 C 65.1667 %
43 16-03-2020 00:00:00 10.71667 C 66.3819 %
44 17-03-2020 00:00:00 11.47153 C 70.7292 %
45 18-03-2020 00:00:00 11.42569 C 70.3472 %
46 19-03-2020 00:00:00 12.36736 C 67.4583 %
47 20-03-2020 00:00:00 12.53217 C 67.5944 %
48 21-03-2020 00:00:00 11.55903 C 63.9097 %
49 22-03-2020 00:00:00 9.66111 C 61.2292 %
50 23-03-2020 00:00:00 8.67431 C 62.8819 %
Sensor: Nr:Datum:Temp:Feuchte:
G-T/H 51 24-03-2020 00:00:00 8.04028 C 63.8611 %
52 25-03-2020 00:00:00 7.80833 C 63.4722 %
53 26-03-2020 00:00:00 8.04028 C 64.0208 %
54 27-03-2020 00:00:00 9.19722 C 61.4583 %
55 28-03-2020 00:00:00 10.48264 C 59.6944 %
56 29-03-2020 00:00:00 10.14855 C 60.5362 %
57 30-03-2020 00:00:00 8.62708 C 59.5417 %
58 31-03-2020 00:00:00 8.58472 C 62.8194 %
59 01-04-2020 00:00:00 8.20764 C 62.6181 %
60 02-04-2020 00:00:00 8.18194 C 64.4097 %
61 03-04-2020 00:00:00 9.17708 C 61.3125 %
62 04-04-2020 00:00:00 7.05486 C 55.4306 %
63 05-04-2020 00:00:00 9.21944 C 61.8056 %
64 06-04-2020 00:00:00 10.2125 C 63.7569 %
65 07-04-2020 00:00:00 13.11319 C 59.7083 %
66 08-04-2020 00:00:00 13.17153 C 61.2847 %
67 09-04-2020 00:00:00 13.65556 C 60.0069 %
68 10-04-2020 00:00:00 13.73681 C 60.7847 %
69 11-04-2020 00:00:00 13.3125 C 61.3611 %
70 12-04-2020 00:00:00 13.45 C 63.2500 %
71 13-04-2020 00:00:00 13.15556 C 59.7986 %
72 14-04-2020 00:00:00 11.44375 C 58.7847 %
73 15-04-2020 00:00:00 11.16875 C 56.8333 %
74 16-04-2020 00:00:00 11.42917 C 52.3542 %
75 17-04-2020 00:00:00 14.90625 C 55.3958 %
Sensor: Nr:Datum:Temp:Feuchte:
G-T/H 76 18-04-2020 00:00:00 14.63333 C 62.5347 %
77 19-04-2020 00:00:00 14.45833 C 64.6250 %
78 20-04-2020 00:00:00 13.53681 C 59.6042 %
79 21-04-2020 00:00:00 13.28819 C 58.7986 %
80 22-04-2020 00:00:00 13.43958 C 59.4167 %
81 23-04-2020 00:00:00 13.68125 C 59.6181 %
82 24-04-2020 00:00:00 14.95139 C 52.1875 %
83 25-04-2020 00:00:00 14.65694 C 48.8681 %
84 26-04-2020 00:00:00 11.22569 C 54.7014 %
85 27-04-2020 00:00:00 13.14028 C 57.4375 %
86 28-04-2020 00:00:00 13.66528 C 62.0139 %
87 29-04-2020 00:00:00 13.85625 C 64.5486 %
88 30-04-2020 00:00:00 14.0875 C 65.0556 %
89 01-05-2020 00:00:00 13.42361 C 65.1111 %
90 02-05-2020 00:00:00 12.90972 C 65.8542 %
91 03-05-2020 00:00:00 12.50278 C 65.6389 %
92 04-05-2020 00:00:00 13.3096 C 66.6560 %

Maximal/Minimal-Werte vom 03.02.2020 - 02.08.2020

Sensor Min Max Avg
Temp
(Aussen-T/F)
-4.7 °C
24-03-2020  06:00:17
43.5 °C
31-07-2020  17:11:17
13.3 °C
Feuchte
(Aussen-T/F)
20 %
03-02-2020  11:26:17
50 %
14-03-2020  05:39:18
31.4 %
Temp
(G-T/H)
4.2 °C
04-04-2020  07:31:18
18.8 °C
17-04-2020  19:12:17
10.82 °C
Feuchte
(G-T/H)
35 %
24-04-2020  17:42:18
77 %
11-03-2020  13:29:17
66.39 %

Die Daten stammen von einer Davis Vantage Pro 2 Wetter-Station und werden unter Linux mit der Software wview2wettercgi und aufbereitet. Alle Angaben erfolgen ohne Gewähr für ihre Vollständigkeit oder Richtigkeit.
Kontakt: Rainer Krienke krienke@uni-koblenz.de . Meine Webseiten an der Uni Koblenz oder privat.
Version: $Revision: 0.78 $